Home   Weather   Santa Clarita   Past weeks

Flag for USA Past Weather in Santa Clarita, California, USA — Yesterday and Last 2 Weeks

Now
66 °F

Clear.


Feels Like: 66 °F
Forecast: 56 / 76 °F
Wind: 21 mph from North

Location: Van Nuys Airport

Current Time: Apr 28, 2017 at 3:33:01 am

Latest Report: Apr 28, 2017 at 2:51 am


Visibility: 10 mi

Pressure: 29.74 "Hg

Humidity: 29%

Dew Point: 33 °F

Location of Santa ClaritaLocation

Past Weather in Santa Clarita — Graph

°F

Santa Clarita Temperature Yesterday

Maximum temperature yesterday: 80 °F (at 4:51 pm)
Minimum temperature yesterday: 66 °F (at 6:51 am)
Average temperature yesterday: 72 °F

High & Low Weather Summary for the Past Weeks

 TemperatureHumidityPressure
High93 °F (Apr 21, 2:51 pm)93% (Apr 19, 2:51 am)30.12 "Hg (Apr 19, 2:51 am)
Low50 °F (Apr 15, 4:51 am)7% (Apr 21, 2:51 pm)29.71 "Hg (Apr 27, 3:51 pm)
Average68 °F46%29.93 "Hg
* Reported Apr 13 1:01 am — Apr 28 1:51 am, Santa Clarita, Weather by CustomWeather, © 2017

Note: Actual official high and low records may vary slightly from our data, if they occured in-between our weather recording intervals... More about our weather records

Advertising

Santa Clarita Weather History for the Previous 24 Hours

Scroll right to see more
 ConditionsComfort  
Time TempWeatherWind HumidityBarometerVisibility
1:51 am
Fri, Apr 28
67 °FClear.18 mph29%29.75 "Hg10 mi
11:51 pm
Thu, Apr 27
70 °FClear.30 mph25%29.75 "Hg10 mi
10:51 pm71 °FClear.26 mph24%29.75 "Hg10 mi
9:51 pm71 °FClear.33 mph26%29.75 "Hg10 mi
8:51 pm71 °FClear.24 mph34%29.75 "Hg10 mi
7:51 pm72 °FClear.24 mph30%29.72 "Hg10 mi
6:51 pm75 °FSunny.22 mph23%29.72 "Hg10 mi
5:51 pm78 °FSunny.25 mph21%29.72 "Hg10 mi
4:51 pm80 °FSunny.24 mph20%29.71 "Hg10 mi
3:51 pm77 °FSunny.23 mph24%29.71 "Hg10 mi
2:51 pm77 °FSunny.18 mph26%29.74 "Hg10 mi
1:51 pm79 °FSunny.25 mph26%29.74 "Hg10 mi
12:51 pm77 °FScattered clouds.23 mph30%29.76 "Hg10 mi
11:51 am76 °FSunny.30 mph32%29.76 "Hg10 mi
10:51 am75 °FSunny.25 mph32%29.79 "Hg10 mi
9:51 am72 °FSunny.16 mph38%29.80 "Hg10 mi
8:51 am70 °FSunny.15 mph42%29.79 "Hg10 mi
7:51 am68 °FSunny.17 mph45%29.79 "Hg10 mi
6:51 am66 °FSunny.17 mph50%29.79 "Hg10 mi
5:51 am67 °FPassing clouds.18 mph49%29.77 "Hg10 mi
4:51 am68 °FClear.18 mph49%29.76 "Hg10 mi
3:51 am69 °FClear.25 mph47%29.75 "Hg10 mi
Weather by CustomWeather, © 2017

See weather overviewHow to use our weather pages